Waarnemingen

Advertentie
Mijn weer
Putbus, Duitsland (10093): temperatuur & dauwpunt: 23.04.2017 19:00:00 - 29.04.2017 19:00:00 (CEST)Putbus, Duitsland (10093): temperatuur 5cm & temperatuur -5cm: 23.04.2017 19:00:00 - 29.04.2017 19:00:00 (CEST)Putbus, Duitsland (10093): temperatuur -20cm & temperatuur -100cm: 23.04.2017 19:00:00 - 29.04.2017 19:00:00 (CEST)Putbus, Duitsland (10093): windsnelheid & windstoten: 23.04.2017 19:00:00 - 29.04.2017 19:00:00 (CEST)Putbus, Duitsland (10093): windrichting: 23.04.2017 19:00:00 - 29.04.2017 19:00:00 (CEST)Putbus, Duitsland (10093): luchtdruk: 23.04.2017 19:00:00 - 29.04.2017 19:00:00 (CEST)Putbus, Duitsland (10093): zicht: 23.04.2017 19:00:00 - 29.04.2017 19:00:00 (CEST)Putbus, Duitsland (10093): Zonneschijnduur: 23.04.2017 19:00:00 - 29.04.2017 19:00:00 (CEST)Putbus, Duitsland (10093): neerslag: 23.04.2017 19:00:00 - 29.04.2017 19:00:00 (CEST)
Datum & Tijd tt [°C] td [°C] tt 5cm [°C] tt -5cm [°C] tt -20cm [°C] tt -100cm [°C] ff [km/u] ff [kn] fx [km/u] fx [kn] dd ppp [hPa] vv [km] sd [min] rr [mm]
29.04.2017 19:00:00 5,2 3,0 5,9 9,8 9,1 7,8 12 7 18 10 ONO 1018,9 29 3 0,0
29.04.2017 18:00:00 5,7 3,1 7,8 10,3 9,1 7,8 11 6 17 9 NNO 1018,4 34 3 0,0
29.04.2017 17:00:00 4,9 2,8 6,1 10,2 9,0 7,8 11 6 19 11 N 1017,9 44 0 0,0
29.04.2017 16:00:00 4,3 2,5 5,5 10,1 9,0 7,7 12 6 29 15 N 1017,6 19 0 0,9
29.04.2017 15:00:00 4,3 2,4 5,7 10,8 8,8 7,7 18 10 34 18 NNW 1017,1 11 0 0,3
29.04.2017 14:00:00 5,1 2,5 7,3 11,1 8,5 7,7 14 8 27 15 N 1016,3 16 0 0,0
29.04.2017 13:00:00 6,3 2,5 8,7 10,9 8,2 7,7 22 12 31 17 NNW 1015,7 20 0 0,0
29.04.2017 12:00:00 6,2 3,0 7,8 8,8 8,1 7,7 18 10 26 14 NW 1015,4 19 0 0,0
29.04.2017 11:00:00 6,3 3,4 6,8 8,7 8,0 7,7 16 9 29 16 NW 1014,8 30 0 0,0
29.04.2017 10:00:00 6,0 4,1 6,5 7,6 8,0 7,7 13 7 35 19 WNW 1014,2 18 0 0,6
29.04.2017 09:00:00 5,8 3,9 5,9 7,8 8,0 7,7 16 9 26 14 W 1013,9 18 0 0,0
29.04.2017 08:00:00 6,1 4,8 6,5 7,4 8,0 7,7 7 4 13 7 W 1013,6 8 0 0,0
29.04.2017 07:00:00 5,3 4,2 5,4 6,6 8,1 7,7 4 2 10 5 WZW 1013,5 12 0 0,0
29.04.2017 06:00:00 5,2 4,1 4,4 6,7 8,3 7,7 4 2 6 3 ONO 1013,1 11 0 0,0
29.04.2017 05:00:00 5,5 4,2 4,9 6,7 8,4 7,7 2 1 18 10 NNO 1013,2 11 0 0,2
29.04.2017 04:00:00 6,0 3,7 5,6 6,8 8,6 7,6 13 7 20 11 WNW 1013,1 16 0 0,0
29.04.2017 03:00:00 6,4 3,4 5,6 7,1 8,8 7,6 8 5 15 8 W 1012,9 17 0 0,0
29.04.2017 02:00:00 7,2 4,5 6,0 7,2 9,0 7,6 5 3 14 7 OZO 1012,8 17 0 0,0
29.04.2017 01:00:00 7,0 4,0 6,0 7,3 9,2 7,6 7 4 16 9 ZO 1013,0 15 0 0,0
29.04.2017 00:00:00 7,0 3,4 6,1 7,6 9,5 7,6 6 4 14 8 ZO 1013,2 19 0 0,0
28.04.2017 23:00:00 6,5 3,4 5,6 7,8 9,9 7,6 6 3 10 6 OZO 1013,3 15 0 0,0
28.04.2017 22:00:00 6,4 2,7 5,1 8,1 10,3 7,6 5 3 13 7 OZO 1013,6 20 0 0,0
28.04.2017 21:00:00 6,4 2,8 3,8 8,9 10,7 7,6 7 4 15 8 OZO 1013,6 19 8 0,0
28.04.2017 20:00:00 7,6 3,0 6,6 11,3 10,9 7,6 10 6 18 10 OZO 1013,2 20 43 0,0
28.04.2017 19:00:00 8,1 3,4 9,2 12,2 11,0 7,6 11 6 23 13 OZO 1013,3 14 0 0,0
28.04.2017 18:00:00 8,8 3,0 10,6 13,4 11,1 7,6 11 6 23 13 OZO 1013,3 19 0 0,0
28.04.2017 17:00:00 9,5 0,6 11,8 15,0 10,9 7,6 14 8 26 14 OZO 1013,2 41 7 0,0
28.04.2017 16:00:00 10,6 -1,3 15,8 16,1 10,5 7,6 13 7 27 14 ZO 1012,8 33 7 0,0
28.04.2017 15:00:00 10,4 -2,1 15,1 15,8 10,1 7,6 11 6 23 12 ZO 1012,9 49 1 0,0
28.04.2017 14:00:00 10,5 -1,8 15,6 17,9 9,3 7,6 13 7 24 13 ZO 1012,9 40 40 0,0
28.04.2017 13:00:00 10,4 -0,8 17,0 17,4 8,3 7,6 11 6 22 12 OZO 1013,1 17 57 0,0
28.04.2017 12:00:00 11,2 -0,5 16,5 15,6 7,3 7,6 11 6 19 10 Z 1013,3 30 60 0,0
28.04.2017 11:00:00 10,4 1,1 15,8 12,7 6,5 7,6 9 5 16 9 ZZO 1013,5 31 60 0,0
28.04.2017 10:00:00 10,3 1,9 12,0 9,4 5,9 7,6 8 4 17 9 ZZW 1013,4 37 60 0,0
28.04.2017 09:00:00 8,7 -0,3 9,1 6,1 5,7 7,6 8 4 16 9 ZZW 1013,3 43 60 0,0
28.04.2017 08:00:00 6,9 0,9 5,7 3,3 5,8 7,6 9 5 19 11 ZZW 1013,4 46 60 0,0
28.04.2017 07:00:00 5,0 2,0 2,2 2,4 6,0 7,6 8 5 16 9 Z 1013,5 39 46 0,0
28.04.2017 06:00:00 4,0 0,7 0,7 2,0 6,4 7,6 11 6 16 9 Z 1013,4 39 0 0,0
28.04.2017 05:00:00 2,6 0,1 -1,7 2,3 6,7 7,6 9 5 15 8 Z 1013,5 19 0 0,0
28.04.2017 04:00:00 3,1 0,2 -1,2 3,0 7,1 7,6 9 5 16 9 ZZW 1013,6 16 0 0,0
28.04.2017 03:00:00 4,7 1,3 1,6 3,4 7,4 7,6 11 6 17 9 Z 1013,8 39 0 0,0
28.04.2017 02:00:00 4,0 1,3 -0,6 3,9 7,8 7,6 8 5 15 8 Z 1014,2 21 0 0,0
28.04.2017 01:00:00 3,6 1,3 0,4 4,7 8,2 7,6 8 5 13 7 Z 1014,4 34 0 0,0
28.04.2017 00:00:00 5,5 2,5 3,2 5,7 8,6 7,6 9 5 14 8 Z 1014,6 41 0 0,0
27.04.2017 23:00:00 5,7 3,0 4,0 6,4 9,0 7,6 8 4 13 7 Z 1014,6 42 0 0,0
27.04.2017 22:00:00 3,1 -0,5 0,6 6,5 9,4 7,6 2 1 4 2 W 1014,6 57 0 0,0
27.04.2017 21:00:00 4,2 0,4 0,2 8,1 9,8 7,6 0 0 9 5 N 1014,3 60 10 0,0
27.04.2017 20:00:00 7,5 0,4 4,8 10,3 10,0 7,6 6 3 13 7 W 1014,0 70 51 0,0
27.04.2017 19:00:00 8,8 -1,2 11,0 12,0 10,0 7,6 9 5 17 9 W 1013,7 49 21 0,0
27.04.2017 18:00:00 8,6 -1,5 9,3 13,4 9,8 7,6 14 8 31 17 ZW 1013,9 68 30 0,0
27.04.2017 17:00:00 9,2 -1,3 12,4 14,5 9,5 7,6 10 5 26 14 W 1013,5 63 19 0,0
27.04.2017 16:00:00 8,4 -3,0 10,1 15,5 8,9 7,6 17 9 39 21 WNW 1013,6 36 49 0,0
27.04.2017 15:00:00 9,3 -1,2 16,1 15,3 8,2 7,6 18 10 34 19 WNW 1013,5 20 51 0,0
27.04.2017 14:00:00 9,0 -0,3 14,4 13,6 7,5 7,6 19 10 37 20 W 1013,6 26 43 0,0
27.04.2017 13:00:00 7,6 -0,1 11,6 11,6 6,9 7,6 21 12 32 17 W 1013,5 23 26 0,0
27.04.2017 12:00:00 6,9 0,7 8,7 10,8 6,3 7,5 22 12 32 17 W 1013,5 32 21 0,0
27.04.2017 11:00:00 8,3 1,0 12,7 9,6 5,6 7,5 16 8 27 15 W 1013,3 57 36 0,0
27.04.2017 10:00:00 7,5 2,1 9,4 7,8 5,1 7,5 14 8 20 11 WZW 1013,1 17 57 0,0
27.04.2017 09:00:00 5,0 2,3 5,4 4,4 5,0 7,5 11 6 16 9 WZW 1013,1 18 29 0,0
27.04.2017 08:00:00 3,2 1,2 2,6 2,0 5,1 7,5 12 6 16 9 WZW 1012,8 14 55 0,0
27.04.2017 07:00:00 0,9 -0,2 -0,3 1,2 5,4 7,5 13 7 17 9 WZW 1012,6 8 56 0,0
27.04.2017 06:00:00 0,5 -0,6 -1,4 1,2 5,7 7,5 13 7 16 8 W 1012,4 9 0 0,0
27.04.2017 05:00:00 0,4 -0,7 -1,7 1,4 6,0 7,5 13 7 16 8 W 1012,3 9 0 0,0
27.04.2017 04:00:00 -0,1 -1,3 -1,4 1,7 6,4 7,5 12 6 16 8 WZW 1012,5 13 0 0,0
27.04.2017 03:00:00 0,7 -0,7 -2,5 2,1 6,8 7,5 13 7 18 10 WZW 1012,4 21 0 0,0
27.04.2017 02:00:00 0,7 -0,9 -1,5 2,6 7,3 7,5 12 6 16 8 WZW 1012,6 27 0 0,0
27.04.2017 01:00:00 0,5 -1,3 -1,6 3,2 7,8 7,5 9 5 11 6 WZW 1012,8 44 0 0,0
27.04.2017 00:00:00 1,0 -0,8 -1,2 4,0 8,3 7,5 7 4 10 6 WZW 1012,8 22 0 0,0
26.04.2017 23:00:00 1,2 -1,1 -0,6 5,0 8,8 7,5 9 5 11 6 W 1012,7 26 0 0,0
26.04.2017 22:00:00 1,9 -1,1 -0,6 6,2 9,3 7,5 4 2 7 4 W 1012,6 41 0 0,0
26.04.2017 21:00:00 4,0 -1,0 1,3 8,0 9,7 7,5 0 0 13 7 N 1012,2 70 25 0,0
26.04.2017 20:00:00 6,1 -0,9 4,7 10,0 9,9 7,5 8 5 23 12 NW 1011,9 70 60 0,0
26.04.2017 19:00:00 7,5 -1,4 9,3 12,8 9,8 7,5 14 7 26 14 WNW 1011,5 24 60 0,0
26.04.2017 18:00:00 8,9 -1,0 13,1 14,3 9,5 7,5 13 7 30 16 WNW 1011,2 26 60 0,0
26.04.2017 17:00:00 9,4 -2,0 14,6 14,0 9,1 7,6 16 9 29 16 W 1011,2 34 42 0,0
26.04.2017 16:00:00 9,1 -1,0 15,7 13,8 8,7 7,6 16 9 30 16 W 1011,1 35 33 0,0
26.04.2017 15:00:00 7,9 -0,2 10,2 13,6 8,1 7,6 13 7 26 14 W 1010,9 44 21 0,0
26.04.2017 14:00:00 7,4 -0,2 9,9 13,9 7,5 7,6 13 7 24 13 WNW 1011,0 70 28 0,0
26.04.2017 13:00:00 8,2 -0,1 12,1 12,8 6,8 7,6 10 6 29 16 W 1010,5 44 21 0,0
26.04.2017 12:00:00 8,1 -0,3 10,5 12,4 5,9 7,6 14 8 28 15 W 1010,4 47 50 0,0
26.04.2017 11:00:00 6,3 -0,7 7,9 10,2 5,2 7,6 18 10 30 16 W 1010,1 44 42 0,0
26.04.2017 10:00:00 6,4 0,9 9,1 7,4 4,7 7,6 14 8 25 14 W 1009,6 42 59 0,0
26.04.2017 09:00:00 4,7 1,2 5,5 4,1 4,5 7,5 9 5 22 12 W 1009,4 32 42 0,0
26.04.2017 08:00:00 2,8 -0,1 3,1 2,1 4,6 7,5 11 6 21 12 W 1009,1 44 47 0,0
26.04.2017 07:00:00 1,4 -1,1 0,4 1,1 4,8 7,5 13 7 19 10 WZW 1008,8 43 36 0,0
26.04.2017 06:00:00 1,0 -1,4 -0,3 0,9 5,0 7,5 14 8 20 11 ZW 1008,3 44 0 0,0
26.04.2017 05:00:00 0,5 -1,6 -0,6 0,8 5,3 7,5 14 7 21 11 ZW 1007,9 43 0 0,0
26.04.2017 04:00:00 0,7 -1,9 -1,1 1,1 5,7 7,5 13 7 19 10 WZW 1007,3 49 0 0,0
26.04.2017 03:00:00 0,8 -1,7 -0,9 1,5 6,1 7,5 13 7 19 10 WZW 1007,2 50 0 0,0
26.04.2017 02:00:00 1,4 -1,4 -0,2 2,1 6,4 7,5 13 7 22 12 WZW 1007,0 53 0 0,0
26.04.2017 01:00:00 2,0 -0,8 0,3 2,7 6,8 7,5 14 7 22 12 WZW 1006,8 69 0 0,0
26.04.2017 00:00:00 2,5 -0,9 1,4 3,1 7,3 7,6 14 8 26 14 WZW 1006,5 59 0 0,0
25.04.2017 23:00:00 2,9 -0,9 1,4 3,8 7,7 7,6 17 9 39 21 WZW 1006,2 70 0 0,0
25.04.2017 22:00:00 3,0 -0,5 1,6 4,6 8,2 7,6 17 9 26 14 WZW 1006,2 70 0 0,0
25.04.2017 21:00:00 3,2 -0,7 1,4 5,9 8,6 7,6 13 7 25 14 WZW 1005,7 63 24 0,0
25.04.2017 20:00:00 4,5 -0,9 3,2 8,0 8,8 7,6 20 11 34 18 W 1005,2 55 60 0,0
25.04.2017 19:00:00 5,5 0,6 7,5 10,4 8,8 7,6 19 10 32 17 W 1004,7 45 54 0,0
25.04.2017 18:00:00 6,3 0,8 10,5 11,2 8,6 7,6 22 12 32 17 W 1004,1 36 31 0,0
25.04.2017 17:00:00 5,3 1,2 8,3 11,3 8,4 7,6 16 9 26 14 WNW 1003,6 38 7 0,0
25.04.2017 16:00:00 5,4 1,3 7,8 11,6 8,1 7,6 15 8 24 13 W 1003,2 47 6 0,0
25.04.2017 15:00:00 4,3 1,4 5,5 9,7 8,0 7,6 10 5 18 10 WNW 1002,8 31 0 0,1
25.04.2017 14:00:00 3,6 0,9 3,9 10,0 7,8 7,6 16 9 29 16 WZW 1002,8 12 0 0,3
25.04.2017 13:00:00 5,8 -0,2 8,5 12,5 7,2 7,6 12 7 22 12 Z 1001,8 48 4 0,0
25.04.2017 12:00:00 6,6 -1,9 10,0 13,1 6,5 7,6 7 4 21 12 NW 1001,7 45 48 0,0
25.04.2017 11:00:00 5,8 -1,9 8,9 8,7 6,0 7,6 5 3 16 9 ZZW 1001,5 52 20 0,0
25.04.2017 10:00:00 5,0 0,1 7,3 7,5 5,7 7,6 5 3 14 8 ZZW 1001,8 49 29 0,0
25.04.2017 09:00:00 3,7 0,5 4,5 5,5 5,7 7,6 8 4 12 6 ZW 1002,0 36 5 0,0
25.04.2017 08:00:00 2,7 0,2 2,6 4,4 5,7 7,6 6 3 11 6 ZZW 1001,8 35 0 0,0
25.04.2017 07:00:00 2,1 0,2 1,7 3,9 5,8 7,6 7 4 13 7 ZZW 1002,1 39 0 0,0
25.04.2017 06:00:00 2,2 0,0 1,7 3,9 5,9 7,6 9 5 17 9 WZW 1002,4 27 0 0,2
25.04.2017 05:00:00 3,1 -0,4 2,3 4,2 6,0 7,6 9 5 14 7 ZW 1002,7 39 0 0,0
25.04.2017 04:00:00 3,5 -0,1 2,4 4,3 6,1 7,6 9 5 19 11 ZW 1003,2 41 0 0,0
25.04.2017 03:00:00 3,9 1,1 3,1 4,4 6,3 7,6 10 5 14 8 WZW 1003,8 25 0 0,0
25.04.2017 02:00:00 3,7 1,3 2,8 4,4 6,4 7,6 9 5 11 6 W 1004,4 38 0 0,0
25.04.2017 01:00:00 4,1 1,3 3,1 4,7 6,6 7,6 10 5 13 7 WZW 1004,7 38 0 0,0
25.04.2017 00:00:00 4,5 1,6 3,1 5,0 6,8 7,6 9 5 19 10 WZW 1005,3 36 0 0,0
24.04.2017 23:00:00 5,1 2,0 3,9 5,2 6,9 7,6 14 8 24 13 W 1005,9 39 0 0,0
24.04.2017 22:00:00 5,2 2,3 3,8 5,7 7,1 7,6 17 9 24 13 W 1005,8 43 0 0,0
24.04.2017 21:00:00 6,1 3,4 5,2 6,5 7,2 7,6 16 9 32 18 WZW 1005,7 42 0 0,0
24.04.2017 20:00:00 6,8 5,0 6,2 7,1 7,2 7,6 20 11 37 20 W 1005,5 24 0 0,2
24.04.2017 19:00:00 6,8 5,1 6,2 7,4 7,2 7,6 28 15 45 25 W 1005,6 28 0 2,2
24.04.2017 18:00:00 8,5 4,7 7,1 7,8 7,1 7,6 29 16 53 28 W 1005,5 10 0 0,1
24.04.2017 17:00:00 10,1 2,9 9,5 7,8 7,0 7,6 27 15 51 27 WZW 1005,6 25 0 0,0
24.04.2017 16:00:00 9,7 2,7 9,0 8,2 6,8 7,6 24 13 49 26 ZW 1006,2 20 0 0,0
24.04.2017 15:00:00 9,4 2,6 9,9 9,0 6,6 7,6 26 14 58 31 ZW 1007,2 28 0 0,0
24.04.2017 14:00:00 8,4 1,7 9,5 7,8 6,3 7,6 27 14 48 26 ZW 1008,0 33 0 0,0
24.04.2017 13:00:00 7,0 1,5 7,4 7,1 6,2 7,6 20 11 42 23 ZW 1009,2 38 0 0,0
24.04.2017 12:00:00 6,2 1,2 6,1 6,7 6,0 7,6 26 14 42 23 ZZW 1010,1 29 0 0,0
24.04.2017 11:00:00 6,0 1,1 6,1 7,0 5,8 7,6 23 12 39 21 ZZW 1011,1 37 0 0,0
24.04.2017 10:00:00 5,6 1,4 6,3 6,4 5,5 7,6 21 12 36 19 ZZW 1012,1 39 0 0,1
24.04.2017 09:00:00 4,3 1,6 4,3 5,2 5,4 7,6 19 10 30 16 ZZW 1013,2 21 0 0,0
24.04.2017 08:00:00 3,7 1,4 3,8 4,1 5,4 7,6 16 9 26 14 ZW 1014,1 26 0 0,0
24.04.2017 07:00:00 3,4 1,5 3,1 3,3 5,4 7,6 15 8 32 17 ZW 1014,5 22 0 0,1
24.04.2017 06:00:00 3,0 1,3 2,5 2,7 5,6 7,6 18 10 26 14 WZW 1015,1 28 0 0,0
24.04.2017 05:00:00 2,3 0,2 1,7 2,2 5,8 7,6 17 9 23 13 WZW 1015,7 26 0 0,0
24.04.2017 04:00:00 2,2 -0,6 0,6 2,0 6,1 7,6 11 6 18 10 ZW 1016,2 54 0 0,0
24.04.2017 03:00:00 1,9 -0,9 -0,7 2,2 6,4 7,6 13 7 27 14 W 1016,6 51 0 0,0
24.04.2017 02:00:00 3,6 -0,4 1,4 2,8 6,8 7,6 18 10 28 15 W 1017,0 54 0 0,0
24.04.2017 01:00:00 4,6 -1,0 2,6 3,3 7,1 7,6 17 9 29 15 WNW 1017,2 70 0 0,0
24.04.2017 00:00:00 4,2 0,0 2,2 3,6 7,6 7,6 13 7 30 16 WNW 1017,1 59 0 0,0
23.04.2017 23:00:00 5,0 -0,7 2,6 4,1 8,0 7,6 16 9 32 17 WNW 1017,0 68 0 0,0
23.04.2017 22:00:00 5,3 -0,1 3,0 4,9 8,5 7,6 18 10 36 20 W 1016,7 62 0 0,0
23.04.2017 21:00:00 5,9 -1,6 4,2 5,9 8,9 7,6 23 12 48 26 WNW 1016,1 65 10 0,0
23.04.2017 20:00:00 6,6 -3,1 5,2 7,8 9,2 7,6 23 12 49 26 WNW 1015,7 40 60 0,0
23.04.2017 19:00:00 7,5 0,1 8,6 10,2 9,3 7,6 26 14 47 25 W 1015,4 28 53 0,0

tt = temperatuur
td = dauwpunt
tt 5cm = temperatuur 5cm
tt -5cm = temperatuur -5cm
tt -20cm = temperatuur -20cm
tt -100cm = temperatuur -100cm
ff = windsnelheid
fx = windstoten
dd = windrichting
ppp = luchtdruk
vv = zicht
sd = Zonneschijnduur
rr = neerslag

Weerstations in de omgeving